Location: Perryvale
(54.4667°N, 113.3833°W)
Time: 19:10:42
(UTC+00:00)

Envisat - Visible Passes

Search period start: 29 May 2023 00:00
Search period end: 08 June 2023 00:00
Orbit: 763 x 765 km, 98.2° (Epoch: 29 May)

Date Brightness Start Highest point End Pass type
(mag) Time Alt. Az. Time Alt. Az. Time Alt. Az.
30 May 5.6 10:00:02 10° NE 10:02:40 14° E 10:05:17 10° ESE visible
02 Jun 5.8 09:48:36 10° ENE 09:50:02 11° E 09:51:28 10° E visible
07 Jun 5.6 09:59:52 10° NE 10:02:32 14° E 10:05:13 10° ESE visible
